Regional Weather Roundup
Issued by NWS Kansas City/Pleasant Hill, MO

Home | Current Version | Previous Version | Graphics & Text | Print | Product List | Glossary Off
Versions: 1 2 3 4 5 6 7 8 9 10 11 12 13 14 15 16 17 18 19 20 21 22 23 24 25 26 27

000
ASUS43 KEAX 250810
RWREAX

WEATHER ROUNDUP FOR EASTERN KANSAS AND NORTHWEST MISSOURI
NATIONAL WEATHER SERVICE KANSAS CITY/PLEASANT HILL MO
300 AM CDT THU AUG 25 2016

KSZ040-057-103>105-MOZ028-029-037-043-250900-
...KANSAS CITY METROPOLITAN AREA...

CITY           SKY/WX    TMP DP  RH WIND       PRES   REMARKS
K.C. INTL      CLOUDY    70  67  90 SW5       30.04R FOG
K.C. DOWNTOWN  LGT RAIN  72  70  93 SW5       30.02R
LEES SUMMIT    MOCLDY    70  68  93 SE7       30.05S
OLATHE - IXD   TSTM      70  69  97 S3        30.07R
OLATHE - OJC   LGT RAIN  69  69 100 SE8       30.05R
LAWRENCE       TSTM      71  32  23 MISG      30.06R

$$

MOZ001>008-011>017-020>025-030>033-038>040-044>046-053-054-250900-
...NORTHERN AND CENTRAL MISSOURI...

CITY           SKY/WX    TMP DP  RH WIND       PRES   REMARKS
ST. JOSEPH     CLOUDY    70  68  93 N6        30.04R
MOSBY          CLOUDY    70  68  94 SE3       30.03R
WHITEMAN AFB   MOCLDY    69  69 100 CALM      30.05R
CLINTON        PTCLDY    72  70  94 CALM      30.06R
SEDALIA        PTCLDY    70  68  93 N3        30.06S
WARSAW         NOT AVBL
CHILLICOTHE      N/A     69  68  96 NW3       30.04R
KIRKSVILLE     CLOUDY    69  68  96 CALM      30.03R

$$

MOZ041-047>049-056>058-063>065-088>090-097-250900-
...EASTERN AND SOUTHERN MISSOURI...

CITY           SKY/WX    TMP DP  RH WIND       PRES   REMARKS
ST. LOUIS INTL PTCLDY    81  71  71 NW9G20    30.06R
SPIRIT OF STL  MOCLDY    79  74  84 W5        30.04R
COLUMBIA       CLEAR     68  67  96 S6        30.05F
JEFFERSON CITY CLEAR     71  68  90 SE3       30.05F
ROLLA          CLEAR     72  70  93 W3        30.07R
OSAGE BEACH    CLEAR     73  71  93 E3        30.07S
SPRINGFIELD    CLEAR     72  67  84 S7        30.08R
BRANSON          N/A     72  66  83 CALM      30.11R
JOPLIN         CLEAR     78  67  68 SW12      30.07R
WEST PLAINS    CLEAR     73  68  84 S3        30.12F

$$

IAZ060-094-KSZ022-034>040-054-083-096-NEZ052-066-093-250900-
...KANSAS...SOUTHEAST NEBRASKA AND IOWA...

CITY           SKY/WX    TMP DP  RH WIND       PRES   REMARKS
TOPEKA         LGT RAIN  71  70  96 CALM      30.04R
MANHATTAN      CLOUDY    69  65  86 CALM      30.05S
EMPORIA        CLOUDY    71  70  96 S10       30.04F
CHANUTE        LGT RAIN  67  66  97 S10       30.09F
WICHITA        CLOUDY    73  69  87 S5        30.00F THUNDER
OMAHA          CLOUDY    63  59  87 N7        30.08R
LINCOLN        CLEAR     58  56  93 N5        30.09F
FALLS CITY     CLOUDY    66  65  96 N3        30.05R
LAMONI         CLOUDY    68  68 100 N5        30.04F
DES MOINES     CLOUDY    70  66  87 N3        30.05R

$$





USA.gov is the U.S. government's official web portal to all federal, state and local government web resources and services.